Overview Statistics Trail Chart Weather Telemetry Raw packets
 

This is the latest recevied weather packets stored in our database for station/object N6ZHV-13. If no packets are shown the sender has not sent any weather packets the latest 10 day(s).

<< 7 8 9 10 11 12 13 >>
Time Temp. Humidity Pressure Rain* Wind** Luminosity Snow
1788629521 25.56° C 41% 1010.5 hPa 0 mm - - -
1788629221 25° C 41% 1010.5 hPa 0 mm - - -
1788628921 25° C 42% 1010.5 hPa 0 mm - - -
1788628621 25° C 45% 1010.5 hPa 0 mm - - -
1788628321 25° C 47% 1010.5 hPa 0 mm - - -
1788628021 25° C 46% 1010.5 hPa 0 mm - - -
1788627721 24.44° C 50% 1010.6 hPa 0 mm - - -
1788627421 24.44° C 51% 1010.5 hPa 0 mm - - -
1788627121 23.89° C 55% 1010.6 hPa 0 mm - - -
1788626821 23.89° C 58% 1010.6 hPa 0 mm - - -
1788626521 23.33° C 56% 1010.5 hPa 0 mm - - -
1788626221 23.33° C 60% 1010.5 hPa 0 mm - - -
1788625921 22.78° C 61% 1010.5 hPa 0 mm - - -
1788625621 22.78° C 63% 1010.5 hPa 0 mm - - -
1788625321 22.22° C 66% 1010.4 hPa 0 mm - - -
1788625021 22.22° C 67% 1010.4 hPa 0 mm - - -
1788624721 22.22° C 70% 1010.3 hPa 0 mm - - -
1788624421 21.67° C 70% 1010.2 hPa 0 mm - - -
1788624121 21.67° C 70% 1010.2 hPa 0 mm - - -
1788623821 21.67° C 68% 1010.2 hPa 0 mm - - -
1788623532 21.67° C 68% 1010.2 hPa 0 mm - - -
1788623521 21.67° C 68% 1010.2 hPa 0 mm - - -
1788623221 21.11° C 70% 1010.2 hPa 0 mm - - -
1788622921 21.67° C 70% 1010.2 hPa 0 mm - - -
1788622621 21.67° C 66% 1010.2 hPa 0 mm - - -

* Rain latest hour (hover to see other rain measurements)
** Current wind speed in m/s (hover to see current wind gust speed)